Lid_Strength_Index
1 1 1 1 1 1 1 1 3 5 4 2 2 -1 -1 -1 -1 -1 -1 1 1 1 2 2 1 1 1 1 1 1 1 0 0 -0 -1 -1 -1 1
1 1 1 1 1 0 1 1 1 2 4 2 1 0 -1 -1 -1 -1 -1 1 2 2 2 2 2 2 2 2 2 2 2 1 1 0 -0 -1 0 1
1 1 1 0 1 1 1 1 1 1 3 2 1 0 0 -0 -0 -1 -1 -1 -1 3 1 2 3 3 3 3 3 2 2 2 2 1 0 1 0 0
1 1 1 1 1 0 1 1 1 -0 2 2 1 1 1 -0 -0 -0 -0 -1 -1 2 2 3 4 4 4 4 4 4 4 3 3 2 2 1 1 1
1 1 1 1 1 1 1 1 1 1 1 2 2 1 1 0 1 0 -0 -0 -1 2 3 3 4 4 5 5 5 5 5 5 5 4 3 2 2 2
1 1 1 1 1 1 1 1 1 1 1 2 2 2 2 1 1 2 2 0 1 -1 1 1 3 4 4 5 5 5 6 6 6 5 5 5 5 4
1 1 0 1 2 1 1 1 1 1 2 2 2 2 2 2 2 1 2 1 1 0 0 0 -0 -0 2 4 3 4 6 7 6 6 6 7 7 6
2 1 1 2 3 4 5 5 2 1 2 2 3 3 2 2 1 2 2 3 4 -0 1 1 -0 0 -0 -0 4 6 6 6 6 6 7 7 8 7
1 1 1 1 1 0 5 6 5 6 4 1 2 2 3 1 1 2 2 2 2 1 1 3 0 1 0 2 7 7 8 7 6 7 7 8 8 8
1 1 1 1 1 1 1 1 1 0 0 0 0 0 0 0 0 1 1 1 1 1 0 4 2 2 2 1 7 7 7 7 8 8 7 8 9 9
1 0 1 1 6 7 1 1 1 1 7 8 8 8 7 7 3 1 2 3 3 2 1 2 2 3 2 3 4 7 8 8 8 8 8 8 9 9
1 1 9 2 10 9 1 1 3 2 1 1 0 3 4 4 6 0 1 3 3 4 1 2 2 2 4 2 3 5 5 8 8 8 8 8 9 4
2 2 1 11 12 11 9 1 2 1 3 1 1 1 1 0 1 0 -0 1 3 3 1 1 2 2 2 3 2 2 2 3 4 6 9 9 9 7
2 2 4 12 12 11 6 11 10 5 1 2 2 2 2 1 1 -0 -0 -0 -0 1 0 -0 1 2 2 3 3 1 2 0 2 3 3 5 9 9
1 7 12 12 11 8 10 11 8 1 2 2 3 2 2 1 1 0 -0 -0 -0 -0 -1 -1 0 0 1 2 3 2 2 1 1 2 2 1 2 2
7 3 5 5 6 4 4 5 1 1 2 2 2 1 1 1 2 1 1 1 1 1 -1 -1 -1 -0 1 1 1 2 1 2 1 0 0 -0 -0 -0
2 1 2 2 2 2 2 1 1 1 2 1 2 2 2 2 2 1 1 1 2 2 2 1 -1 -1 -0 0 2 1 2 1 1 1 1 1 1 1
2 2 3 2 3 2 2 2 1 2 2 1 2 2 2 2 2 1 1 2 3 2 2 1 1 1 1 1 2 1 1 1 1 1 1 2 2 1
2 3 3 3 2 2 2 2 2 1 1 1 2 2 1 2 2 2 2 2 2 2 2 2 2 2 4 4 1 6 1 1 1 1 1 2 3 2
2 2 3 2 2 2 2 2 2 1 1 1 1 1 1 2 2 2 2 2 2 2 2 1 1 2 3 4 3 1 10 1 1 2 2 2 2 8
2 2 2 2 2 2 1 1 1 1 1 1 1 1 1 2 2 2 2 8 5 2 3 3 1 10 -0 0 3 2 1 11 5 2 2 2 3 2
2 2 2 2 2 1 1 1 1 1 1 1 1 1 1 1 2 2 2 2 2 2 2 1 0 2 3 3 4 3 2 1 7 10 9 7 3 4
1 1 1 1 1 1 1 1 1 1 1 1 1 1 1 2 1 1 2 2 2 2 2 2 2 3 3 3 5 3 3 2 2 3 5 9 9 9